Retour au catalogue

THORAD AGENA D DEB

ActifPO
NORAD 4612·DEBRIS·🇺🇸 United States

Lancé Apr 8, 1970 depuis Vandenberg Space Force Base

Loading…

Prochains Passages (prochaines 24 heures)

TLE

FraisSource: Space-Track

Époque: Sep 13, 2026, 17:53 UTC

1 04612U 70025Q   26256.74545189  .00000764  00000-0  49703-3 0  9994
2 04612  99.6485 181.6977 0082559  84.9999 276.0584 14.04195206857354

Suivez THORAD AGENA D DEB en temps réel avec AllMySat

Download on the App Store